This is the latest recevied weather packets stored in our database for station/object IA5ITY-13. If no packets are shown the sender has not sent any weather packets the latest 10 day(s).
| Time | Temp. | Humidity | Pressure | Rain* | Wind** | Luminosity | Snow |
|---|---|---|---|---|---|---|---|
| 1777742112 | 20° C | 46% | 1019.9 hPa | 0 mm | - | - | - |
| 1777741812 | 20° C | 45% | 1019.9 hPa | 0 mm | - | - | - |
| 1777741231 | 20° C | 44% | 1019.9 hPa | 0 mm | - | - | - |
| 1777739709 | 20° C | 42% | 1020.1 hPa | 0 mm | - | - | - |
| 1777739109 | 20° C | 42% | 1020.3 hPa | 0 mm | - | - | - |
| 1777738212 | 20° C | 43% | 1020.4 hPa | 0 mm | - | - | - |
| 1777737908 | 20° C | 42% | 1020.5 hPa | 0 mm | - | - | - |
| 1777737309 | 21.11° C | 31% | 1020.4 hPa | 0 mm | - | - | - |
| 1777737012 | 21.11° C | 32% | 1020.4 hPa | 0 mm | - | - | - |
| 1777736712 | 21.11° C | 29% | 1020.5 hPa | 0 mm | - | - | - |
| 1777736412 | 20° C | 30% | 1020.6 hPa | 0 mm | - | - | - |
| 1777736109 | 21.11° C | 30% | 1020.7 hPa | 0 mm | - | - | - |
| 1777735822 | 21.11° C | 30% | 1020.7 hPa | 0 mm | - | - | - |
| 1777735509 | 20° C | 32% | 1020.7 hPa | 0 mm | - | - | - |
| 1777735212 | 21.11° C | 33% | 1020.8 hPa | 0 mm | - | - | - |
| 1777734912 | 21.11° C | 34% | 1020.7 hPa | 0 mm | - | - | - |
| 1777734612 | 21.11° C | 33% | 1020.7 hPa | 0 mm | - | - | - |
| 1777734309 | 21.11° C | 34% | 1020.8 hPa | 0 mm | - | - | - |
| 1777734031 | 20° C | 35% | 1020.9 hPa | 0 mm | - | - | - |
| 1777733709 | 21.11° C | 37% | 1020.9 hPa | 0 mm | - | - | - |
| 1777733412 | 21.11° C | 36% | 1021 hPa | 0 mm | - | - | - |
| 1777733111 | 21.11° C | 36% | 1021 hPa | 0 mm | - | - | - |
| 1777732812 | 20° C | 39% | 1021 hPa | 0 mm | - | - | - |
| 1777732508 | 21.11° C | 38% | 1021 hPa | 0 mm | - | - | - |
| 1777732223 | 21.11° C | 35% | 1021.1 hPa | 0 mm | - | - | - |
* Rain latest hour (hover to see other rain measurements)
** Current wind speed in m/s (hover to see current wind gust speed)